Hourly Weather Abidzhan

Today, 24 January, Sunday

Time Temperature Precipitation Wind Pressure Humidity
00:00 +27°C° 0 mm 3 mps 754 mmHg 86%
01:00 +27°C° 0 mm 3 mps 753 mmHg 87%
02:00 +27°C° 0 mm 3 mps 753 mmHg 88%
03:00 +27°C° 0 mm 3 mps 752 mmHg 89%
04:00 +27°C° 0 mm 3 mps 753 mmHg 89%
05:00 +27°C° 0 mm 2 mps 753 mmHg 90%
06:00 +26°C° 0 mm 2 mps 753 mmHg 90%
07:00 +27°C° 0.1 mm 2 mps 754 mmHg 87%
08:00 +28°C° 0.1 mm 2 mps 754 mmHg 83%
09:00 +29°C° 0.1 mm 3 mps 755 mmHg 80%
10:00 +30°C° 0.1 mm 3 mps 755 mmHg 73%
11:00 +31°C° 0.1 mm 3 mps 755 mmHg 66%
12:00 +34°C° 0.1 mm 3 mps 755 mmHg 60%
13:00 +34°C° 0.2 mm 3 mps 754 mmHg 59%
14:00 +34°C° 0.2 mm 3 mps 753 mmHg 57%
15:00 +34°C° 0.2 mm 3 mps 752 mmHg 56%
16:00 +33°C° 0.1 mm 3 mps 752 mmHg 61%
17:00 +31°C° 0.1 mm 3 mps 752 mmHg 65%
18:00 +30°C° 0.1 mm 3 mps 752 mmHg 70%
19:00 +29°C° 0 mm 3 mps 753 mmHg 73%
20:00 +29°C° 0 mm 3 mps 753 mmHg 77%
21:00 +28°C° 0 mm 3 mps 754 mmHg 80%
22:00 +28°C° 0 mm 3 mps 754 mmHg 82%
23:00 +28°C° 0 mm 4 mps 754 mmHg 83%

Tomorrow, 25 January, Monday

Time Temperature Precipitation Wind Pressure Humidity
00:00 +27°C° 0 mm 4 mps 754 mmHg 85%
01:00 +27°C° 0 mm 4 mps 753 mmHg 86%
02:00 +27°C° 0 mm 4 mps 753 mmHg 87%
03:00 +27°C° 0 mm 3 mps 752 mmHg 89%
04:00 +27°C° 0 mm 3 mps 753 mmHg 89%
05:00 +27°C° 0 mm 3 mps 753 mmHg 89%
06:00 +27°C° 0 mm 3 mps 753 mmHg 89%
07:00 +28°C° 0 mm 3 mps 754 mmHg 83%
08:00 +29°C° 0 mm 3 mps 754 mmHg 76%
09:00 +30°C° 0 mm 3 mps 755 mmHg 70%
10:00 +31°C° 0.1 mm 3 mps 755 mmHg 66%
11:00 +33°C° 0.1 mm 3 mps 755 mmHg 63%
12:00 +33°C° 0.1 mm 3 mps 755 mmHg 59%
13:00 +33°C° 0.2 mm 3 mps 754 mmHg 59%
14:00 +33°C° 0.2 mm 3 mps 753 mmHg 59%
15:00 +33°C° 0.2 mm 3 mps 753 mmHg 60%
16:00 +31°C° 0.4 mm 3 mps 753 mmHg 64%
17:00 +30°C° 0.4 mm 3 mps 753 mmHg 69%
18:00 +29°C° 0.4 mm 2 mps 753 mmHg 73%
19:00 +29°C° 0 mm 2 mps 754 mmHg 76%
20:00 +28°C° 0 mm 3 mps 754 mmHg 78%
21:00 +27°C° 0 mm 3 mps 755 mmHg 81%
22:00 +27°C° 0 mm 3 mps 755 mmHg 82%
23:00 +27°C° 0 mm 3 mps 754 mmHg 83%

Day after tomorrow, 26 January, Tuesday

Time Temperature Precipitation Wind Pressure Humidity
00:00 +27°C° 0 mm 3 mps 754 mmHg 84%
01:00 +27°C° 0 mm 3 mps 754 mmHg 85%
02:00 +27°C° 0 mm 3 mps 753 mmHg 86%
03:00 +26°C° 0 mm 3 mps 753 mmHg 87%
04:00 +26°C° 0 mm 2 mps 753 mmHg 88%
05:00 +26°C° 0 mm 2 mps 753 mmHg 88%
06:00 +26°C° 0 mm 2 mps 754 mmHg 89%
07:00 +27°C° 0 mm 2 mps 754 mmHg 83%
08:00 +29°C° 0 mm 2 mps 755 mmHg 78%
09:00 +30°C° 0 mm 2 mps 755 mmHg 72%
10:00 +30°C° 0 mm 2 mps 755 mmHg 69%
11:00 +31°C° 0 mm 2 mps 755 mmHg 66%
12:00 +31°C° 0 mm 3 mps 755 mmHg 63%
13:00 +33°C° 0.4 mm 3 mps 754 mmHg 63%
14:00 +33°C° 0.4 mm 3 mps 754 mmHg 63%
15:00 +33°C° 0.4 mm 3 mps 753 mmHg 63%
16:00 +31°C° 0.3 mm 3 mps 753 mmHg 67%
17:00 +30°C° 0.3 mm 3 mps 753 mmHg 71%
18:00 +29°C° 0.3 mm 2 mps 753 mmHg 74%
19:00 +29°C° 0 mm 3 mps 754 mmHg 77%
20:00 +28°C° 0 mm 3 mps 754 mmHg 80%
21:00 +27°C° 0 mm 3 mps 755 mmHg 83%
22:00 +27°C° 0 mm 3 mps 755 mmHg 84%
23:00 +27°C° 0 mm 3 mps 754 mmHg 85%

27 January, Wednesday

Time Temperature Precipitation Wind Pressure Humidity
00:00 +27°C° 0 mm 3 mps 754 mmHg 85%
01:00 +27°C° 0 mm 3 mps 754 mmHg 86%
02:00 +27°C° 0 mm 2 mps 754 mmHg 87%
03:00 +27°C° 0 mm 2 mps 753 mmHg 87%
04:00 +27°C° 0 mm 2 mps 753 mmHg 88%
05:00 +26°C° 0 mm 2 mps 754 mmHg 88%
06:00 +26°C° 0 mm 2 mps 754 mmHg 89%
07:00 +28°C° 0 mm 2 mps 755 mmHg 83%
08:00 +29°C° 0 mm 2 mps 755 mmHg 77%
09:00 +30°C° 0 mm 1 mps 755 mmHg 72%
10:00 +31°C° 0.1 mm 2 mps 755 mmHg 69%
11:00 +31°C° 0.1 mm 2 mps 755 mmHg 67%
12:00 +31°C° 0.1 mm 2 mps 755 mmHg 64%
13:00 +32°C° 0.7 mm 2 mps 754 mmHg 63%
14:00 +32°C° 0.7 mm 2 mps 753 mmHg 62%
15:00 +34°C° 0.7 mm 2 mps 753 mmHg 62%
16:00 +32°C° 0.4 mm 2 mps 753 mmHg 66%
17:00 +31°C° 0.4 mm 2 mps 753 mmHg 69%
18:00 +29°C° 0.4 mm 2 mps 753 mmHg 73%
19:00 +29°C° 0 mm 3 mps 753 mmHg 76%
20:00 +28°C° 0 mm 3 mps 754 mmHg 79%
21:00 +28°C° 0 mm 3 mps 754 mmHg 81%
22:00 +27°C° 0 mm 3 mps 754 mmHg 82%
23:00 +27°C° 0 mm 3 mps 754 mmHg 83%

28 January, Thursday

Time Temperature Precipitation Wind Pressure Humidity
00:00 +27°C° 0 mm 3 mps 754 mmHg 84%
01:00 +27°C° 0 mm 3 mps 754 mmHg 85%
02:00 +27°C° 0 mm 3 mps 753 mmHg 86%
03:00 +27°C° 0 mm 3 mps 753 mmHg 87%
04:00 +27°C° 0 mm 2 mps 753 mmHg 88%
05:00 +27°C° 0 mm 2 mps 754 mmHg 88%
06:00 +26°C° 0 mm 2 mps 754 mmHg 88%
07:00 +28°C° 0 mm 2 mps 754 mmHg 82%
08:00 +29°C° 0 mm 2 mps 755 mmHg 76%
09:00 +30°C° 0 mm 2 mps 755 mmHg 70%
10:00 +31°C° 0.2 mm 2 mps 755 mmHg 67%
11:00 +32°C° 0.2 mm 2 mps 755 mmHg 64%
12:00 +33°C° 0.2 mm 3 mps 754 mmHg 61%
13:00 +33°C° 0.5 mm 3 mps 754 mmHg 62%
14:00 +33°C° 0.5 mm 3 mps 753 mmHg 62%
15:00 +33°C° 0.5 mm 3 mps 752 mmHg 63%
16:00 +31°C° 0.3 mm 3 mps 753 mmHg 67%
17:00 +30°C° 0.3 mm 3 mps 753 mmHg 70%
18:00 +29°C° 0.3 mm 2 mps 753 mmHg 74%

29 January, Friday

Time Temperature Precipitation Wind Pressure Humidity
Show more